Lapse_Rate
9.0 8.8 7.4 7.6 5.9 5.4 6.8 6.8 6.3 7.1 6.9 7.2 7.1 7.5 7.3 5.1 4.4 4.9 5.3 5.7 6.0 6.7 8.4 9.3 9.1 9.4 9.6 9.7 9.6 9.6 9.4 9.3 8.7 9.0 9.5 7.7 7.3 9.2 9.1 8.1 7.8 6.1 4.1
8.8 9.0 8.2 7.3 6.8 5.8 6.7 6.7 6.3 6.8 7.2 7.2 7.3 7.4 7.3 5.9 4.7 4.7 5.7 6.9 7.2 7.0 7.6 9.1 9.3 9.5 9.2 8.5 9.5 9.1 9.3 9.0 9.1 7.8 8.0 8.4 6.3 5.6 6.0 6.5 8.9 6.6 5.2
8.7 9.1 7.0 7.7 8.1 7.4 7.2 7.4 6.7 6.6 5.9 6.3 7.3 7.2 6.3 5.4 6.4 6.5 6.1 6.0 6.4 6.7 6.9 8.6 9.1 9.2 8.9 9.3 9.2 9.1 8.5 8.4 9.0 9.0 8.2 9.4 7.7 7.2 6.1 6.0 6.5 5.5 6.0
8.4 9.2 9.0 9.1 9.0 8.8 8.1 7.4 6.9 6.7 6.1 7.0 6.5 7.2 6.7 5.4 5.3 4.9 5.2 5.4 5.1 5.2 4.8 5.7 6.6 6.7 7.1 7.0 7.6 7.8 7.8 8.6 8.5 7.4 7.0 8.5 8.8 6.6 8.9 9.3 9.1 9.0 9.2
9.2 9.2 9.1 9.2 9.3 9.3 9.2 9.0 8.7 7.8 7.0 6.7 7.0 6.0 6.5 6.5 5.9 5.8 5.8 5.9 5.8 5.2 5.0 4.1 3.5 2.2 1.5 2.5 6.8 6.0 6.9 8.3 8.5 7.0 8.4 9.0 9.1 9.0 8.4 7.7 9.1 9.1 7.4
9.2 9.2 9.1 9.2 9.3 9.3 9.3 9.4 9.4 9.4 8.5 7.4 8.2 8.9 8.0 7.9 2.3 4.4 6.9 7.2 6.4 4.9 4.2 3.8 3.1 4.3 2.0 1.1 1.2 0.8 1.9 7.0 7.5 8.9 8.6 8.3 6.0 7.8 6.6 7.9 8.8 8.9 8.7
9.2 9.3 9.2 9.1 9.2 9.2 9.3 9.3 9.2 8.9 9.0 9.0 8.8 8.2 7.2 5.8 1.1 2.1 4.4 6.7 5.6 5.1 5.0 6.4 7.6 7.1 6.6 6.7 3.1 3.0 2.5 2.3 3.0 6.1 6.3 7.6 5.4 5.3 6.4 8.0 6.6 8.2 8.9
9.1 9.2 9.2 9.2 8.9 9.0 8.9 8.4 8.0 8.1 8.4 8.7 7.9 6.4 4.9 2.6 -0.2 0.9 3.2 5.8 5.5 5.9 6.2 6.7 6.2 5.8 5.0 7.1 6.9 6.0 4.9 3.8 4.8 6.3 4.9 4.5 4.3 4.8 5.0 6.0 6.1 7.6 8.7
9.1 9.2 9.2 6.7 5.3 5.8 5.6 5.7 5.7 5.9 6.4 6.5 5.6 5.0 4.1 2.3 -0.8 0.8 5.2 4.9 5.0 4.0 3.1 2.7 5.1 4.5 1.5 2.3 7.4 6.1 5.0 4.0 -0.3 -0.3 -0.3 -0.2 0.2 1.0 2.1 8.0 9.4 9.3 9.1
9.0 7.6 5.3 4.8 3.6 2.3 1.8 2.1 4.1 3.8 5.3 5.6 4.6 3.9 1.7 2.7 -1.5 -1.0 4.8 6.3 4.9 4.8 4.4 3.6 0.7 1.5 0.5 0.8 7.2 7.3 7.5 7.1 6.8 6.1 5.8 4.6 5.5 4.0 4.8 5.8 7.8 9.0 9.2
1.9 1.3 1.0 1.2 1.3 1.1 0.7 1.1 0.9 2.8 3.9 3.9 3.5 3.4 3.1 3.2 1.8 -0.3 0.9 5.1 6.3 5.3 4.4 3.1 2.2 0.6 0.2 0.7 1.6 5.8 6.0 6.4 5.9 8.6 8.7 8.8 9.0 9.8 9.7 6.6 6.2 8.0 9.4
0.6 0.6 0.3 0.3 0.5 1.0 1.3 0.7 -0.1 0.1 0.1 0.7 1.0 0.6 1.8 2.5 2.0 0.8 0.8 1.4 3.6 3.0 2.2 1.8 0.2 -0.1 0.3 1.0 4.0 2.0 3.3 6.0 6.7 7.8 9.6 9.5 9.7 9.9 10.0 9.6 7.7 7.8 9.3
0.6 0.3 0.2 1.2 1.0 0.4 0.3 2.0 2.3 2.7 3.3 3.1 3.0 2.0 1.7 1.4 1.5 1.2 0.8 1.2 1.7 1.5 1.2 1.1 1.4 1.3 2.2 4.0 3.6 4.7 4.7 9.8 9.7 9.6 9.5 9.6 9.9 10.1 8.4 9.8 9.7 9.6 9.2
2.1 2.4 3.3 3.3 3.7 4.3 4.4 4.3 3.5 3.4 3.3 3.2 3.0 2.1 1.9 2.1 2.4 2.5 2.4 2.8 3.4 4.2 5.3 6.8 6.1 5.5 4.7 7.8 8.0 9.2 10.0 9.9 9.6 9.7 9.7 9.9 10.0 10.0 9.9 10.1 9.9 10.0 9.9
4.0 4.8 5.0 4.8 4.7 3.6 3.4 4.3 3.7 3.6 3.6 3.4 3.5 4.1 4.3 4.4 3.3 1.5 5.0 7.0 6.0 4.9 7.4 8.6 9.4 9.4 9.4 9.5 9.6 9.8 9.9 9.9 9.8 9.8 9.8 9.8 9.9 10.0 9.8 10.1 10.0 9.9 9.6
7.5 7.3 7.2 6.7 6.4 5.8 5.7 4.8 1.7 1.6 1.2 1.2 2.2 5.3 4.5 1.9 1.3 1.3 1.2 1.6 3.0 4.3 9.2 9.4 9.3 9.4 9.4 9.4 9.5 9.6 9.8 9.4 9.9 9.9 9.9 9.9 9.8 9.8 9.8 9.9 10.0 9.8 9.6
9.1 8.3 6.8 5.8 5.5 5.5 5.6 8.2 8.5 4.7 1.5 1.1 1.3 1.4 1.8 1.4 1.8 1.8 2.5 3.8 4.8 4.8 9.6 9.6 9.5 9.5 9.5 9.6 9.6 9.7 9.7 9.9 9.4 10.0 9.9 9.8 9.9 9.9 9.7 9.8 9.8 9.7 9.6
7.9 5.9 9.4 9.5 9.2 9.7 9.8 9.7 9.8 9.6 9.5 8.3 2.5 5.5 1.3 2.1 2.7 3.7 4.6 4.1 8.7 9.1 9.7 9.6 9.5 9.6 9.6 9.7 9.8 9.9 9.9 10.0 10.0 10.0 9.9 10.0 10.0 9.9 9.8 9.7 9.7 9.6 9.7
9.8 10.0 9.9 10.0 10.0 9.5 10.0 9.9 9.9 9.7 9.6 9.6 9.1 6.8 3.8 2.6 3.5 5.0 5.8 9.8 9.7 9.7 9.8 9.8 9.8 9.8 9.9 9.9 9.9 9.9 9.9 10.0 9.8 10.0 10.0 10.0 10.0 9.9 9.8 9.8 9.7 6.3 7.6
9.7 6.8 9.2 10.0 9.9 9.9 9.9 9.8 9.7 9.6 9.5 9.5 9.6 9.7 10.0 7.5 9.4 9.8 9.9 9.9 9.9 9.9 10.0 9.9 10.0 10.0 10.0 10.0 10.0 10.0 10.0 9.7 9.9 10.0 10.0 10.1 10.1 10.0 9.9 9.8 9.9 9.7 9.7
10.0 9.7 5.8 9.8 9.7 9.1 8.8 9.5 9.6 9.5 9.5 9.6 9.7 7.8 2.4 9.9 9.8 9.8 9.9 9.9 10.0 10.1 10.0 10.1 10.2 10.2 10.2 10.1 10.1 10.1 10.0 10.1 10.1 10.1 10.1 10.1 10.1 9.9 10.0 10.0 9.9 9.9 9.9
9.8 9.9 9.8 9.6 9.6 9.6 9.6 9.5 9.6 9.5 9.6 9.5 9.8 8.6 4.8 10.0 9.9 9.9 10.0 10.1 10.2 10.2 10.0 10.2 10.3 10.3 10.3 10.2 10.1 10.1 10.1 10.1 10.1 10.2 10.1 10.2 10.2 10.1 10.1 10.0 10.0 9.9 9.8
9.8 9.7 9.6 9.6 9.7 7.3 9.6 9.7 9.6 9.7 9.7 9.8 9.9 9.9 9.9 9.9 9.9 10.0 10.0 10.2 10.2 10.1 9.9 9.9 10.1 10.2 10.0 9.9 9.9 9.9 10.4 10.2 10.1 10.0 10.2 10.2 10.1 10.1 10.0 9.9 9.9 9.9 9.9
9.7 9.7 9.7 9.7 9.8 9.7 9.7 9.6 9.7 8.3 9.7 9.8 9.9 9.8 9.9 9.9 10.0 10.0 10.1 10.2 10.1 10.0 9.9 9.9 9.9 9.9 9.9 9.8 9.8 9.8 9.8 9.7 9.5 9.8 9.7 10.2 10.2 9.9 10.1 10.0 10.0 9.9 9.9
9.8 9.7 9.7 9.6 9.7 9.8 9.7 9.7 9.8 9.8 9.9 9.8 9.9 9.8 10.0 10.0 10.0 10.1 10.3 10.1 10.0 10.0 10.0 9.9 9.9 9.8 9.8 9.8 9.7 9.7 6.6 6.6 7.4 5.7 8.8 9.7 10.1 9.9 10.1 10.1 10.0 10.0 9.9
9.9 9.7 9.7 9.7 9.7 9.7 9.7 9.7 9.7 9.7 9.8 9.8 9.9 9.9 10.0 10.0 10.1 10.2 10.2 10.1 10.2 10.1 9.9 9.9 9.8 9.8 9.7 9.8 9.0 6.8 6.1 5.5 5.7 3.8 5.1 9.2 10.2 10.2 10.2 10.0 9.9 10.0 9.8
Wind_Speed
3 4 3 5 6 3 6 6 6 7 9 9 8 9 9 9 5 4 5 6 5 5 5 6 6 3 6 5 4 4 4 4 6 6 4 4 4 5 7 8 11 13 16
2 4 4 6 6 5 4 5 4 4 6 10 9 8 8 9 8 5 3 1 3 3 5 4 4 4 4 4 5 4 3 3 5 3 3 5 6 6 7 6 7 11 11
5 4 5 6 6 4 5 3 5 6 6 6 4 9 6 7 7 7 5 4 3 4 4 4 4 3 3 3 3 0 2 3 4 5 4 4 6 6 7 6 5 8 8
5 5 8 7 6 5 6 7 6 7 8 7 6 7 7 6 5 6 4 4 3 3 4 5 5 4 2 1 1 1 3 5 3 1 3 5 5 2 3 2 5 1 3
6 6 9 9 6 8 9 9 9 9 8 5 7 4 6 6 4 6 6 5 5 6 8 8 9 10 16 12 4 5 1 3 5 5 5 5 5 4 2 1 1 1 4
8 8 9 9 8 8 9 9 9 9 9 6 5 7 6 4 2 6 8 8 8 9 9 7 6 11 15 16 17 20 14 5 5 3 4 7 5 3 2 2 2 2 2
9 10 10 9 9 8 7 7 7 7 6 6 5 5 7 6 7 6 7 8 9 9 8 8 8 7 7 10 9 13 15 15 13 7 7 6 6 5 4 2 4 4 3
11 11 10 10 8 6 6 6 5 5 6 6 7 9 10 9 10 8 12 12 11 11 9 9 8 8 7 6 9 10 11 12 10 8 9 8 7 6 5 4 3 4 5
13 12 11 11 9 7 8 9 7 8 8 9 10 11 12 11 12 10 11 10 11 11 10 10 8 7 7 10 7 9 10 10 18 20 18 16 14 15 11 5 4 6 6
12 7 12 11 10 10 9 8 9 8 10 10 12 13 13 12 17 17 8 8 10 8 9 10 18 10 10 12 6 6 7 6 6 6 6 7 5 7 7 7 5 5 6
14 13 13 12 11 11 11 10 10 11 12 13 14 13 14 13 16 19 16 9 7 8 8 8 9 15 13 13 13 8 7 6 4 3 3 1 0 1 4 6 4 5 5
15 14 13 12 9 10 13 12 13 12 12 11 11 9 9 11 14 16 17 16 12 8 7 6 7 14 14 13 9 8 7 2 2 4 3 2 4 5 5 5 6 6 7
16 15 13 12 12 13 14 11 9 9 7 7 6 8 6 6 7 14 14 14 14 8 5 6 7 7 11 10 8 4 9 2 3 4 4 4 5 4 7 3 4 3 9
17 15 11 12 12 11 9 8 8 7 7 6 6 6 5 5 4 4 4 5 11 7 9 5 7 7 8 2 4 1 4 5 5 4 4 4 3 4 4 4 5 5 5
15 12 12 10 12 11 10 7 7 7 6 6 5 4 5 6 3 4 6 6 6 4 2 3 3 3 1 2 4 4 4 4 4 4 4 4 4 5 5 5 5 5 5
17 12 11 11 11 10 10 10 17 14 12 12 13 10 9 9 8 10 10 9 6 4 3 4 3 3 3 4 4 3 4 4 4 4 4 5 5 5 6 5 5 5 6
15 14 10 9 8 8 8 10 11 10 14 14 14 15 14 9 9 9 8 6 1 6 4 4 4 4 4 3 3 3 4 4 4 4 4 5 5 5 5 5 5 5 6
15 13 12 11 10 9 8 8 8 8 8 8 5 7 9 8 6 2 3 4 4 4 3 3 3 2 2 3 4 5 5 4 3 4 5 5 5 6 6 6 5 5 6
11 9 9 8 8 7 7 7 7 6 7 7 7 6 5 7 7 4 8 3 4 4 4 4 4 4 3 3 4 4 4 5 5 5 5 5 6 6 6 6 5 2 4
9 7 6 8 7 7 5 5 6 5 4 3 4 4 5 7 3 3 3 3 3 4 4 4 4 4 4 4 4 4 4 2 4 5 6 6 6 6 6 6 6 6 6
8 7 5 5 6 5 4 4 3 2 1 3 4 7 9 5 3 3 3 4 4 5 4 4 4 4 3 2 4 4 4 4 4 5 5 5 5 6 6 6 6 6 6
4 6 5 3 6 7 6 5 2 2 2 2 4 5 5 4 3 3 4 4 5 4 5 4 4 4 4 4 3 4 3 4 5 5 6 6 6 6 6 6 6 6 6
3 1 2 3 4 6 6 4 3 3 4 4 3 3 2 3 3 3 3 3 4 4 4 4 5 5 2 2 3 4 5 5 6 7 6 6 6 6 6 6 7 7 7
1 1 3 5 5 5 5 4 4 5 1 3 3 2 1 1 1 3 3 3 4 3 3 4 3 4 5 7 8 6 5 3 9 10 10 7 6 5 7 6 6 8 7
1 2 3 4 4 5 4 3 4 4 4 3 3 1 1 1 0 1 1 1 2 4 4 5 6 8 9 10 11 10 8 6 4 7 10 9 7 8 6 6 7 8 8
3 1 1 1 3 3 4 4 3 3 3 3 2 2 2 2 1 2 1 1 4 4 4 5 7 8 9 8 6 10 7 4 2 4 8 9 6 6 6 8 9 7 8
Wind_Direction
161 119 135 120 125 79 71 71 76 101 112 119 122 120 135 142 142 166 191 180 189 192 239 213 215 227 263 239 231 235 229 227 242 117 85 109 96 77 109 124 113 100 89
131 105 110 163 145 139 98 93 110 104 125 133 123 105 123 146 155 161 185 114 204 211 227 226 240 241 240 248 240 223 215 179 263 156 89 112 95 102 99 109 136 102 107
161 129 110 171 164 169 147 125 126 127 138 116 137 110 100 107 126 128 110 74 40 5 343 322 286 295 262 272 269 81 348 317 264 272 124 121 122 126 109 94 104 114 109
200 154 131 144 135 141 149 152 143 147 162 150 114 113 105 98 94 109 129 135 110 59 41 33 21 22 328 327 78 266 241 243 216 151 106 122 114 88 94 154 122 102 129
200 175 149 141 133 130 131 123 122 118 121 131 127 143 150 153 138 153 147 141 123 94 71 66 62 70 66 49 68 50 8 185 177 158 164 153 150 141 114 96 142 284 135
195 182 158 158 148 139 141 137 136 132 129 126 129 131 127 93 82 120 150 139 127 122 111 108 110 86 72 72 72 62 48 34 41 112 140 89 101 121 76 13 325 304 238
199 175 168 169 156 157 152 151 141 133 126 104 93 104 90 70 35 91 117 121 115 106 99 117 126 98 99 91 96 89 66 56 51 67 87 74 84 42 29 345 21 346 327
198 179 172 175 153 150 146 117 122 125 113 102 84 78 76 63 41 86 100 113 108 100 95 99 99 88 49 84 87 79 68 55 44 74 82 82 74 63 42 40 359 302 247
194 185 183 117 118 120 117 121 113 110 103 89 80 80 81 67 22 35 100 91 89 81 70 42 69 69 18 348 95 95 91 89 73 76 84 82 67 45 28 332 357 324 312
183 93 92 108 114 110 99 88 89 89 99 95 86 81 69 67 45 39 74 98 94 90 68 66 42 40 23 6 95 112 112 103 99 102 98 83 61 72 51 44 353 319 311
91 87 88 92 96 95 91 80 79 88 96 94 93 80 70 54 52 51 46 65 80 78 73 63 49 47 41 40 41 59 65 95 102 90 61 46 7 290 20 23 359 307 312
89 87 88 88 91 91 93 90 88 87 87 82 80 72 48 49 46 56 58 59 57 79 70 67 76 62 54 42 67 63 92 149 149 184 235 321 332 342 355 350 327 315 317
94 93 90 95 93 103 103 94 85 81 82 85 72 82 59 36 51 58 70 78 81 82 89 108 112 136 130 97 64 360 259 320 328 314 348 349 343 354 307 298 271 252 244
91 91 98 97 91 82 84 76 85 86 83 76 81 80 78 65 53 56 77 95 111 125 141 100 71 79 62 55 202 130 31 10 348 2 339 356 339 340 342 345 323 327 309
92 93 91 88 89 81 64 69 80 62 85 104 97 113 111 97 74 46 61 83 78 56 73 94 87 66 46 36 73 25 25 14 17 14 357 354 348 342 350 339 329 320 311
107 103 101 102 98 93 93 81 50 62 60 64 58 79 73 88 92 75 70 65 52 332 90 71 74 70 47 39 30 43 41 33 16 4 3 1 353 340 355 317 327 330 324
104 107 105 99 99 101 111 111 103 81 65 58 68 69 72 93 95 93 108 116 15 302 78 62 49 47 57 48 27 24 16 35 306 354 351 352 343 334 309 334 335 324 324
111 125 122 126 132 143 116 119 122 116 113 121 87 98 100 105 102 136 235 272 154 128 90 56 63 56 52 21 13 2 354 339 355 351 342 344 338 332 323 330 324 353 337
136 127 127 127 110 108 111 106 102 99 98 114 133 164 147 157 163 193 271 33 31 43 30 47 26 15 354 349 359 351 339 7 346 325 338 340 339 330 329 330 324 225 276
100 54 112 117 153 131 115 102 85 97 105 100 95 105 146 199 167 75 55 29 21 8 17 5 28 8 2 359 337 336 328 324 340 338 346 338 336 324 323 323 323 326 325
135 141 15 164 111 105 118 119 117 76 113 70 82 57 11 327 46 53 18 31 8 355 356 357 338 16 325 345 1 332 325 328 348 339 335 330 327 321 324 320 315 320 322
146 150 179 175 147 147 165 185 186 81 76 141 114 119 278 274 39 32 18 4 4 356 356 342 321 355 360 16 350 344 328 341 358 346 331 330 329 329 328 320 317 321 322
112 118 146 118 129 126 167 168 189 188 176 171 161 143 150 37 23 15 11 14 2 3 10 338 320 314 320 311 301 313 326 358 352 345 334 327 327 344 328 313 322 318 327
99 217 183 159 159 157 187 205 107 38 58 162 155 142 105 8 11 84 333 5 1 358 324 318 320 313 311 290 289 264 258 26 343 335 339 316 323 326 328 318 319 326 312
122 193 182 120 177 225 128 174 154 159 172 176 168 194 163 232 268 271 341 2 331 309 355 337 337 342 315 311 299 298 105 85 344 331 311 320 321 315 312 316 326 320 318
158 189 256 226 187 176 167 163 167 175 181 189 189 222 218 210 210 289 190 316 333 5 344 10 358 341 331 311 31 86 98 101 327 317 315 300 310 320 333 328 319 310 309